STARLINK-36072

Last updated on Mon Dec 15 2025 00:02:12 GMT+0000 (Coordinated Universal Time)

1 66856U 25281J 25348.25003472 -.01221889 00000+0 -50569-2 0 9993 2 66856 43.0005 112.9869 0001402 269.8977 271.8619 15.87302544 1640
UTC large
Height (km)
Speed (km/s)
/
Latitude / Longitude
Inclination (degrees)
Orbital Period (minutes)
Azimuth
Elevation
Range (km)
Doppler Factor

Next 0 passes for location: London (51.5072 / 0.1276)

Sorry there are no passes over London.